CZ-3B R/B (44979 NORAD) Tracking and Keplerian Element Data

This shows tracking and keplerian element data for the satellite.

Feedback or suggestion? Click here.




ElementValue
Catalog44979
NameCZ-3B R/B
Epoch Orbit66
Epoch Day34.91979653
Epoch Year2020
RAAN323.0724
Inclination27.42
Eccentricity0.7212509
Argument of Perigee197.0857
Mean Anonmoly117.0482
Mean Motion2.42082399
Decay Rate0.00112356
L11 44979U 20002B 20034.91979653 .00112356 -28227-6 14222-2 0 9994
L22 44979 27.4200 323.0724 7212509 197.0857 117.0482 2.42082399 668



Live tracking and technical data element details for CZ-3B R/B (NORAD 44979). CZ-3B R/B can be tracked NOW for your location showing map with azimuth and elevation plus other details from your city location.







IsCatalogInMostPopularTable: catalog: 44979, numindb: 148
Update: records affected: 1



GetName: 44979 CZ-3B R/B

Hit Count: updated at: Sun, 28 May 2023 06:12:58 GMT